C/2018 W1 ( Catalina )

Japanese version
Home page
Updated on August 7, 2019

---------------------------------------------------------------------

* Profile

Discovery Date November 16, 2018
Magnitude 19.8 mag
Discoverer Catalina Sky Survey

* Pictures

* Orbital Elements

Epoch 2019 Apr. 27.0 TT = JDT 2458600.5
T 2019 May 11.85357 TT                                  MPCW
q   1.3601948            (2000.0)            P               Q
n   0.00968158     Peri.  251.24749     +0.10162586     -0.59234154
a  21.8024401      Node   233.58935     +0.67180327     -0.55168828
e   0.9376127      Incl.   83.27845     -0.73372512     -0.58717249
P 102
From 243 observations 2018 Nov. 16-2019 May 26, mean residual 0".4.

* Finding Charts

* Magnitudes Graph

        m1 = 13.5 + 5 log d + 10.0 log r

---------------------------------------------------------------------

The orbital elements are published on M.P.E.C. 2019-L24.
The charts are made with StellaNavigator Ver.10 (AstroArts).
The magnitudes graphs are made with Comet for Windows.

---------------------------------------------------------------------

Copyright(C) Seiichi Yoshida (comet@aerith.net). All rights reserved.